Regional Weather Roundup
Issued by NWS

Home | Current Version | Previous Version | Text Only | Print | Product List | Glossary On
Versions: 1 2 3 4 5 6 7 8 9 10 11 12 13 14 15 16 17 18 19 20 21 22 23 24 25 26 27 28 29 30 31 32 33 34 35 36 37 38 39 40 41 42 43 44 45 46 47 48 49 50
000
ASUS43 KOAX 060102
RWRNE

WEATHER ROUNDUP FOR NEBRASKA
NATIONAL WEATHER SERVICE OMAHA NE
700 PM CST FRI FEB 05 2016

NOTES: SATELLITE DATA IS BEING USED TO AUGMENT CLOUD COVER ABOVE
       12000 FEET.
       "FAIR" INDICATES FEW OR NO CLOUDS BELOW 12,000 FEET WITH NO
       SIGNIFICANT WEATHER AND/OR OBSTRUCTIONS TO VISIBILITY.

  * THESE STATIONS DO NOT REPORT WEATHER SUCH AS RAIN...SNOW OR FOG.

NEZ001>004-019>022-054>056-060200-
NEBRASKA PANHANDLE

CITY           SKY/WX    TMP DP  RH WIND       PRES   REMARKS
SCOTTSBLUFF    CLEAR     28  16  60 W12       30.27R WCI  18
ALLIANCE       CLEAR     25  17  72 NW14      30.23R WCI  13
CHADRON        CLEAR     30  21  69 W15       30.23S WCI  19
KIMBALL        CLEAR     25  15  67 NW16      30.26S WCI  12
SIDNEY         CLEAR     22  15  75 W13       30.26R WCI  10
$$

NEZ057>060-069>072-079>082-060200-
SOUTHWEST NEBRASKA

CITY           SKY/WX    TMP DP  RH WIND       PRES   REMARKS
NORTH PLATTE   CLEAR     31  22  69 N7        30.25R WCI  24
IMPERIAL       CLEAR     28  20  71 NW12      30.26R WCI  18
MCCOOK         CLEAR     31  23  72 W10       30.27R WCI  22
$$

NEZ005>010-023>029-035>040-094-060200-
NORTH CENTRAL NEBRASKA

CITY           SKY/WX    TMP DP  RH WIND       PRES   REMARKS
VALENTINE      PTCLDY    25  21  85 W5        30.22S WCI  19
AINSWORTH      CLEAR     29  25  82 CALM      30.23R
BROKEN BOW     CLOUDY    33  25  72 NW18      30.23R WCI  22
ORD            CLOUDY    35  27  72 NW12      30.22R WCI  27
$$

NEZ041-046>049-061>064-073>077-083>087-060200-
SOUTH CENTRAL NEBRASKA

CITY           SKY/WX    TMP DP  RH WIND       PRES   REMARKS
GRAND ISLAND   CLOUDY    34  29  82 NW13      30.24R WCI  25
HASTINGS       CLOUDY    36  27  69 N14       30.23R WCI  27
HEBRON         PTCLDY    28  25  89 CALM      30.25R
KEARNEY *      CLOUDY    36 N/A N/A NW7       30.24R WCI  30
$$

NEZ011>018-030>034-042>045-060200-
NORTHEAST NEBRASKA

CITY           SKY/WX    TMP DP  RH WIND       PRES   REMARKS
NORFOLK        CLOUDY    36  32  85 NW10      30.20R WCI  28
COLUMBUS *     CLOUDY    34  25  69 W6        30.22S WCI  29
FREMONT        CLOUDY    32  29  90 CALM      30.23R
TEKAMAH        CLOUDY    28  26  92 S9        30.23S WCI  19
$$

NEZ050>053-065>068-078-088>093-060200-
SOUTHEAST NEBRASKA

CITY           SKY/WX    TMP DP  RH WIND       PRES   REMARKS
LINCOLN        FLURRIES  33  28  81 SW5       30.26R WCI  29
OMAHA EPPLEY   CLOUDY    31  28  89 S8        30.25S FOG     WCI  23
BEATRICE       CLOUDY    33  29  84 W6        30.25R WCI  28
FALLS CITY     CLOUDY    33  26  75 SE7       30.26S WCI  27
NEBRASKA CITY  PTCLDY    29  29 100 S3        30.26S FOG
$$

NEZ044-045-051>053-067-060200-
OMAHA AREA

CITY           SKY/WX    TMP DP  RH WIND       PRES   REMARKS
OMAHA EPPLEY   CLOUDY    31  28  89 S8        30.25S FOG     WCI  23
FREMONT        CLOUDY    32  29  90 CALM      30.23R
OFFUTT AFB     CLOUDY    29  29  98 SE5       30.24F WCI  24
WAHOO          CLOUDY    32  30  94 S3        30.23S
$$



USA.gov is the U.S. government's official web portal to all federal, state and local government web resources and services.